Weather History for Boise, ID

Change the Weather History Date:

Sunday, February 16, 2014

  Actual Average Record
Temperature  
Mean Temperature 47 °F 37 °F  
Max Temperature 56 °F 45 °F 62 °F (1898)
Min Temperature 37 °F 28 °F 0 °F (1956)
Degree Days  
Heating Degree Days 18 28  
Month to date heating degree days 467 481  
Since 1 July heating degree days 4088 3842  
Cooling Degree Days 0 0  
Month to date cooling degree days 0 0  
Year to date cooling degree days 0 0  
Moisture  
Dew Point 27 °F    
Average Humidity 48    
Maximum Humidity 62    
Minimum Humidity 34    
Precipitation  
Precipitation 0.01 in 0.03 in 0.40 in (1976)
Month to date precipitation 2.01 0.55  
Year to date precipitation 2.82 1.79  
Snow  
Snow 0.00 in 0.10 in 3.00 in (1975)
Month to date snowfall 4.2 1.9  
Since 1 July snowfall 14.4 16.7  
Snow Depth 0.00 in    
Sea Level Pressure  
Sea Level Pressure 29.97 in    
Wind  
Wind Speed 12 mph (WSW)    
Max Wind Speed 26 mph    
Max Gust Speed 39 mph    
Visibility 10 miles    
Events Rain    
T = Trace of Precipitation, MM = Missing Value Source: NWS Daily Summary

Daily Weather History Graph

Daily Weather History Graph

Search for Another Location

Airport:

Trip Planner

Search our weather history database for the weather conditions in past years. The results will help you decide how hot, cold, wet, or windy it might be!

Date:

Astronomy

Feb. 16, 2014 Rise Set
Actual Time 7:41 AM MST 6:16 PM MST
Civil Twilight 7:12 AM MST 6:46 PM MST
Nautical Twilight 6:38 AM MST 7:19 PM MST
Astronomical Twilight 6:05 AM MST 7:52 PM MST
Moon 8:23 PM MST (2/16) 8:09 AM MST (2/16)
Length of Visible Light 11h 33m
Length of Day
10h 35m
Full, 97% of the Moon is Illuminated
Feb 16
Full
Feb 22
Last Quarter
Mar 1
New
Mar 8
First Quarter
Mar 16
Full

Hourly Weather History & Observations

Time (MST) Temp. Windchill Dew Point Humidity Pressure Visibility Wind Dir Wind Speed Gust Speed Precip Events Conditions
12:53 AM 52.0 °F - 32.0 °F 47% 29.68 in 10.0 mi South 4.6 mph - N/A   Overcast
1:53 AM 55.0 °F - 30.0 °F 38% 29.67 in 10.0 mi SSW 18.4 mph 26.5 mph N/A   Overcast
2:53 AM 51.1 °F - 33.1 °F 50% 29.68 in 10.0 mi SSW 9.2 mph - N/A   Overcast
3:23 AM 50.0 °F - 33.8 °F 54% 29.73 in 10.0 mi West 13.8 mph - N/A   Overcast
3:53 AM 48.0 °F - 36.0 °F 63% 29.73 in 10.0 mi WNW 9.2 mph - N/A   Overcast
4:53 AM 46.0 °F - 37.9 °F 73% 29.75 in 10.0 mi Calm Calm - 0.00 in Rain Light Rain
5:53 AM 45.0 °F 40.1 °F 32.0 °F 60% 29.79 in 10.0 mi WSW 9.2 mph - 0.00 in Rain Light Rain
6:53 AM 44.1 °F 38.6 °F 32.0 °F 63% 29.81 in 10.0 mi WNW 10.4 mph - 0.00 in   Overcast
7:53 AM 43.0 °F 35.1 °F 30.0 °F 60% 29.85 in 10.0 mi West 17.3 mph - N/A   Overcast
8:53 AM 41.0 °F 33.5 °F 25.0 °F 53% 29.92 in 10.0 mi WNW 13.8 mph - N/A   Clear
9:53 AM 43.0 °F 35.4 °F 26.1 °F 51% 29.96 in 10.0 mi West 16.1 mph - N/A   Clear
10:53 AM 44.1 °F 34.8 °F 21.9 °F 42% 30.00 in 10.0 mi West 25.3 mph 34.5 mph N/A   Partly Cloudy
11:53 AM 44.1 °F 35.4 °F 21.0 °F 40% 30.02 in 10.0 mi WNW 21.9 mph 34.5 mph N/A   Mostly Cloudy
12:53 PM 46.0 °F 38.0 °F 23.0 °F 40% 30.05 in 10.0 mi WNW 21.9 mph 29.9 mph N/A   Overcast
1:53 PM 44.1 °F 36.8 °F 24.1 °F 45% 30.06 in 10.0 mi WNW 16.1 mph 24.2 mph N/A   Mostly Cloudy
2:53 PM 46.0 °F 39.9 °F 24.1 °F 42% 30.08 in 10.0 mi West 13.8 mph - N/A   Mostly Cloudy
3:53 PM 46.0 °F 41.9 °F 24.1 °F 42% 30.10 in 10.0 mi WNW 8.1 mph - N/A   Partly Cloudy
4:53 PM 46.0 °F 43.1 °F 23.0 °F 40% 30.12 in 10.0 mi WNW 5.8 mph - N/A   Clear
5:53 PM 46.0 °F - 19.9 °F 35% 30.14 in 10.0 mi Calm Calm - N/A   Clear
6:53 PM 41.0 °F 37.1 °F 24.1 °F 51% 30.16 in 10.0 mi SE 5.8 mph - N/A   Clear
7:53 PM 37.9 °F 31.5 °F 24.1 °F 57% 30.18 in 10.0 mi ESE 9.2 mph - N/A   Clear
8:53 PM 37.9 °F 31.5 °F 24.1 °F 57% 30.18 in 10.0 mi SE 9.2 mph - N/A   Clear
9:53 PM 39.0 °F 32.3 °F 23.0 °F 53% 30.16 in 10.0 mi SE 10.4 mph - N/A   Clear
10:53 PM 39.0 °F 31.4 °F 23.0 °F 53% 30.14 in 10.0 mi ESE 12.7 mph - N/A   Clear
11:53 PM 39.9 °F 32.1 °F 21.9 °F 49% 30.11 in 10.0 mi ESE 13.8 mph - N/A   Clear